Newton, KS

1:34 PM CDT on October 22, 2017 (GMT -0500)
Newton City County

Weather History for KEWK - October, 2012

Change the Weather History Date:

Tuesday, October 16, 2012

  Actual Average Record
Temperature  
Mean Temperature 68 °F -  
Max Temperature 78 °F 65 °F 88 °F (2016)
Min Temperature 57 °F 44 °F 32 °F (2001)
Cooling Degree Days 2    
Growing Degree Days 18 (Base 50)    
Moisture  
Dew Point 48 °F    
Average Humidity 52    
Maximum Humidity 68    
Minimum Humidity 36    
Precipitation  
Precipitation 0.00 in - - ()
Sea Level Pressure  
Sea Level Pressure 29.68 in    
Wind  
Wind Speed 15 mph (SSW)    
Max Wind Speed 18 mph    
Max Gust Speed 26 mph    
Visibility 10 miles    
Events      
Averages and records for this station are not official NWS values.
T = Trace of Precipitation, MM = Missing Value Source: NWS Daily Summary

Daily Weather History Graph

Daily Weather History Graph

Search for Another Location

Airport or City:

Trip Planner

Search our weather history database for the weather conditions in past years. The results will help you decide how hot, cold, wet, or windy it might be!

Date:

Astronomy

Oct. 16, 2012 Rise Set
Actual Time 7:39 AM CDT 6:49 PM CDT
Civil Twilight 7:12 AM CDT 7:15 PM CDT
Nautical Twilight 6:42 AM CDT 7:46 PM CDT
Astronomical Twilight 6:11 AM CDT 8:16 PM CDT
Moon 9:01 AM CDT (10/16) 7:37 PM CDT (10/16)
Length of Visible Light 12h 03m
Length of Day
11h 10m
New Moon, 2% of the Moon is Illuminated
Oct 16
New Moon
Oct 21
First Quarter
Oct 29
Full
Nov 6
Last Quarter
Nov 13
New

Hourly Weather History & Observations

Time (CDT) Temp. Dew Point Humidity Pressure Visibility Wind Dir Wind Speed Gust Speed Precip Events Conditions
12:15 AM 66.2 °F 44.6 °F 46% 29.82 in 10.0 mi SSW 18.4 mph 24.2 mph N/A   Clear
12:35 AM 66.2 °F 44.6 °F 46% 29.82 in 10.0 mi SSW 16.1 mph - N/A   Clear
12:55 AM 64.4 °F 44.6 °F 49% 29.81 in 10.0 mi SSW 17.3 mph - N/A   Clear
1:15 AM 64.4 °F 44.6 °F 49% 29.81 in 10.0 mi SSW 15.0 mph - N/A   Clear
1:35 AM 64.4 °F 44.6 °F 49% 29.80 in 10.0 mi SSW 17.3 mph - N/A   Clear
1:55 AM 62.6 °F 44.6 °F 52% 29.79 in 10.0 mi SSW 16.1 mph - N/A   Clear
2:15 AM 62.6 °F 44.6 °F 52% 29.79 in 10.0 mi SSW 15.0 mph - N/A   Clear
2:35 AM 62.6 °F 44.6 °F 52% 29.79 in 10.0 mi SSW 15.0 mph - N/A   Clear
2:55 AM 62.6 °F 44.6 °F 52% 29.78 in 10.0 mi SSW 16.1 mph - N/A   Clear
3:15 AM 62.6 °F 44.6 °F 52% 29.77 in 10.0 mi SSW 15.0 mph 21.9 mph N/A   Clear
3:35 AM 62.6 °F 44.6 °F 52% 29.76 in 10.0 mi SSW 16.1 mph - N/A   Clear
3:55 AM 60.8 °F 44.6 °F 55% 29.76 in 10.0 mi SSW 13.8 mph - N/A   Clear
4:15 AM 60.8 °F 44.6 °F 55% 29.76 in 10.0 mi SSW 16.1 mph - N/A   Clear
4:35 AM 60.8 °F 44.6 °F 55% 29.76 in 10.0 mi SSW 15.0 mph - N/A   Clear
4:55 AM 60.8 °F 44.6 °F 55% 29.76 in 10.0 mi SSW 15.0 mph - N/A   Clear
5:15 AM 59.0 °F 44.6 °F 59% 29.76 in 10.0 mi SSW 15.0 mph - N/A   Clear
5:35 AM 59.0 °F 44.6 °F 59% 29.75 in 10.0 mi SSW 15.0 mph - N/A   Clear
5:55 AM 57.2 °F 44.6 °F 63% 29.76 in 10.0 mi SSW 13.8 mph - N/A   Clear
6:35 AM 57.2 °F 44.6 °F 63% 29.75 in 10.0 mi SSW 13.8 mph - N/A   Clear
7:15 AM 57.2 °F 44.6 °F 63% 29.75 in 10.0 mi South 12.7 mph - N/A   Clear
7:35 AM 57.2 °F 44.6 °F 63% 29.76 in 10.0 mi SSW 12.7 mph - N/A   Clear
7:55 AM 57.2 °F 44.6 °F 63% 29.76 in 10.0 mi SSW 13.8 mph - N/A   Clear
8:15 AM 57.2 °F 44.6 °F 63% 29.75 in 10.0 mi South 12.7 mph - N/A   Clear
8:35 AM 57.2 °F 44.6 °F 63% 29.75 in 10.0 mi South 13.8 mph - N/A   Clear
8:55 AM 60.8 °F 46.4 °F 59% 29.75 in 10.0 mi SSW 15.0 mph - N/A   Clear
9:15 AM 62.6 °F 46.4 °F 55% 29.75 in 10.0 mi SSW 16.1 mph 19.6 mph N/A   Clear
9:35 AM 62.6 °F 46.4 °F 55% 29.76 in 10.0 mi SW 16.1 mph 23.0 mph N/A   Clear
9:55 AM 64.4 °F 46.4 °F 52% 29.75 in 10.0 mi SSW 18.4 mph 26.5 mph N/A   Clear
10:15 AM 64.4 °F 46.4 °F 52% 29.75 in 10.0 mi SSW 16.1 mph 20.7 mph N/A   Clear
10:35 AM 66.2 °F 46.4 °F 49% 29.74 in 10.0 mi SW 18.4 mph 23.0 mph N/A   Clear
10:55 AM 66.2 °F 48.2 °F 52% 29.74 in 10.0 mi SSW 18.4 mph 23.0 mph N/A   Clear
11:15 AM 69.8 °F 48.2 °F 46% 29.74 in 10.0 mi SSW 15.0 mph - N/A   Clear
11:35 AM 69.8 °F 48.2 °F 46% 29.74 in 10.0 mi SW 16.1 mph - N/A   Clear
11:55 AM 71.6 °F 48.2 °F 43% 29.74 in 10.0 mi SW 12.7 mph - N/A   Clear
12:15 PM 71.6 °F 50.0 °F 46% 29.73 in 10.0 mi WSW 15.0 mph - N/A   Clear
12:35 PM 73.4 °F 50.0 °F 44% 29.72 in 10.0 mi SW 11.5 mph 18.4 mph N/A   Clear
12:55 PM 73.4 °F 50.0 °F 44% 29.70 in 10.0 mi SW 15.0 mph - N/A   Clear
1:15 PM 73.4 °F 50.0 °F 44% 29.69 in 10.0 mi SSW 16.1 mph - N/A   Clear
1:35 PM 75.2 °F 50.0 °F 41% 29.67 in 10.0 mi SSW 15.0 mph 18.4 mph N/A   Clear
1:55 PM 75.2 °F 50.0 °F 41% 29.66 in 10.0 mi SSW 12.7 mph 21.9 mph N/A   Clear
2:15 PM 77.0 °F 51.8 °F 41% 29.65 in 10.0 mi SW 15.0 mph - N/A   Clear
2:35 PM 77.0 °F 50.0 °F 39% 29.63 in 10.0 mi South 16.1 mph 20.7 mph N/A   Clear
2:55 PM 77.0 °F 50.0 °F 39% 29.63 in 10.0 mi SSW 13.8 mph 20.7 mph N/A   Clear
3:15 PM 77.0 °F 50.0 °F 39% 29.62 in 10.0 mi SW 15.0 mph 18.4 mph N/A   Clear
3:35 PM 78.8 °F 50.0 °F 36% 29.61 in 10.0 mi SSW 12.7 mph 19.6 mph N/A   Clear
3:55 PM 78.8 °F 51.8 °F 39% 29.60 in 10.0 mi SSW 15.0 mph 19.6 mph N/A   Clear
4:15 PM 78.8 °F 50.0 °F 36% 29.60 in 10.0 mi SSW 12.7 mph - N/A   Clear
4:35 PM 78.8 °F 51.8 °F 39% 29.59 in 10.0 mi SW 11.5 mph - N/A   Clear
4:55 PM 78.8 °F 50.0 °F 36% 29.59 in 10.0 mi SSW 12.7 mph - N/A   Clear
5:15 PM 77.0 °F 50.0 °F 39% 29.58 in 10.0 mi SW 15.0 mph - N/A   Clear
5:35 PM 77.0 °F 50.0 °F 39% 29.58 in 10.0 mi SSW 12.7 mph - N/A   Clear
5:55 PM 75.2 °F 50.0 °F 41% 29.57 in 10.0 mi SSW 9.2 mph - N/A   Clear
6:15 PM 73.4 °F 50.0 °F 44% 29.57 in 10.0 mi SSW 6.9 mph - N/A   Clear
6:35 PM 71.6 °F 51.8 °F 50% 29.57 in 10.0 mi SSW 6.9 mph - N/A   Clear
6:55 PM 68.0 °F 51.8 °F 56% 29.56 in 5.0 mi South 6.9 mph - N/A   Clear
7:15 PM 66.2 °F 51.8 °F 60% 29.55 in 10.0 mi South 6.9 mph - N/A   Clear
7:35 PM 66.2 °F 51.8 °F 60% 29.55 in 10.0 mi South 6.9 mph - N/A   Clear
7:55 PM 64.4 °F 51.8 °F 64% 29.56 in 10.0 mi South 8.1 mph - N/A   Clear
8:15 PM 64.4 °F 51.8 °F 64% 29.55 in 10.0 mi South 9.2 mph - N/A   Clear
8:35 PM 66.2 °F 51.8 °F 60% 29.55 in 10.0 mi South 10.4 mph - N/A   Clear
8:55 PM 66.2 °F 51.8 °F 60% 29.55 in 10.0 mi South 11.5 mph - N/A   Clear
9:15 PM 66.2 °F 51.8 °F 60% 29.55 in 10.0 mi South 10.4 mph - N/A   Clear
9:35 PM 66.2 °F 51.8 °F 60% 29.56 in 10.0 mi South 8.1 mph - N/A   Clear
9:55 PM 64.4 °F 51.8 °F 64% 29.56 in 10.0 mi South 6.9 mph - N/A   Clear
10:15 PM 64.4 °F 51.8 °F 64% 29.56 in 10.0 mi South 9.2 mph - N/A   Clear
10:35 PM 64.4 °F 51.8 °F 64% 29.55 in 10.0 mi South 12.7 mph - N/A   Clear
10:55 PM 66.2 °F 53.6 °F 64% 29.54 in 10.0 mi South 15.0 mph - N/A   Clear
11:15 PM 66.2 °F 53.6 °F 64% 29.53 in 10.0 mi South 12.7 mph 20.7 mph N/A   Clear
11:35 PM 64.4 °F 53.6 °F 68% 29.53 in 10.0 mi South 12.7 mph - N/A   Clear
11:55 PM 64.4 °F 51.8 °F 64% 29.53 in 10.0 mi South 12.7 mph - N/A   Clear